| time (UTC) | temp F | wind direction | speed MPH | gust MPH | rain 1hr in | rain 24hr in | rain mn in | humidity % | barometer mb |
| 20260905160006 | 70 | 283 | 12.0 | 20.0 | 0.00 | 0.06 | 0.06 | 45 | 1017.1 |
| 20260905155005 | 70 | 291 | 10.0 | 22.0 | 0.00 | 0.06 | 0.06 | 46 | 1017.0 |
| 20260905154007 | 70 | 279 | 11.0 | 22.0 | 0.00 | 0.06 | 0.06 | 47 | 1016.8 |
| 20260905153005 | 70 | 302 | 12.0 | 19.0 | 0.00 | 0.06 | 0.06 | 46 | 1016.8 |
| 20260905152007 | 71 | 251 | 10.0 | 18.0 | 0.00 | 0.06 | 0.06 | 46 | 1016.7 |
| 20260905151004 | 70 | 326 | 9.0 | 18.0 | 0.00 | 0.06 | 0.06 | 50 | 1016.6 |
| 20260905150012 | 70 | 336 | 9.0 | 18.0 | 0.00 | 0.06 | 0.06 | 50 | 1016.5 |
| 20260905145005 | 71 | 278 | 10.0 | 19.0 | 0.00 | 0.06 | 0.06 | 48 | 1016.5 |
| 20260905144004 | 72 | 283 | 10.0 | 17.0 | 0.00 | 0.06 | 0.06 | 47 | 1016.4 |
| 20260905142005 | 72 | 328 | 11.0 | 18.0 | 0.00 | 0.06 | 0.06 | 46 | 1016.3 |
| 20260905140008 | 72 | 308 | 11.0 | 19.0 | 0.00 | 0.06 | 0.06 | 48 | 1016.4 |
| 20260905135004 | 73 | 291 | 9.0 | 20.0 | 0.00 | 0.06 | 0.06 | 49 | 1016.4 |
| 20260905134006 | 71 | 312 | 8.0 | 15.0 | 0.00 | 0.06 | 0.06 | 50 | 1016.5 |
| 20260905133004 | 73 | 320 | 10.0 | 16.0 | 0.00 | 0.06 | 0.06 | 48 | 1016.5 |
| 20260905132006 | 72 | 282 | 8.0 | 16.0 | 0.00 | 0.06 | 0.06 | 51 | 1016.7 |
| 20260905131005 | 70 | 276 | 8.0 | 12.0 | 0.00 | 0.06 | 0.06 | 51 | 1016.7 |
| 20260905130009 | 72 | 276 | 11.0 | 17.0 | 0.00 | 0.06 | 0.06 | 49 | 1016.6 |
| 20260905125004 | 73 | 308 | 11.0 | 22.0 | 0.00 | 0.06 | 0.06 | 49 | 1016.7 |
| 20260905124006 | 71 | 278 | 11.0 | 22.0 | 0.00 | 0.06 | 0.06 | 47 | 1016.7 |
| 20260905123005 | 71 | 330 | 10.0 | 17.0 | 0.00 | 0.06 | 0.06 | 49 | 1016.8 |
| 20260905122007 | 71 | 261 | 8.0 | 18.0 | 0.00 | 0.06 | 0.06 | 50 | 1016.9 |
| 20260905120007 | 73 | 257 | 10.0 | 18.0 | 0.00 | 0.06 | 0.06 | 49 | 1016.8 |
| 20260905115006 | 73 | 321 | 8.0 | 18.0 | 0.00 | 0.06 | 0.06 | 51 | 1016.8 |
| 20260905114005 | 72 | 306 | 9.0 | 17.0 | 0.00 | 0.06 | 0.06 | 51 | 1016.8 |
| 20260905113005 | 71 | 304 | 11.0 | 22.0 | 0.00 | 0.06 | 0.06 | 51 | 1016.8 |
| 20260905112005 | 72 | 227 | 10.0 | 18.0 | 0.00 | 0.06 | 0.06 | 52 | 1016.9 |
| 20260905111004 | 72 | 270 | 11.0 | 19.0 | 0.00 | 0.06 | 0.06 | 53 | 1016.9 |
| 20260905110015 | 70 | 267 | 10.0 | 18.0 | 0.00 | 0.06 | 0.06 | 55 | 1016.9 |
| 20260905105005 | 70 | 288 | 13.0 | 22.0 | 0.00 | 0.06 | 0.06 | 55 | 1017.0 |
| 20260905104007 | 69 | 290 | 10.0 | 20.0 | 0.00 | 0.06 | 0.06 | 57 | 1016.9 |
| 20260905103007 | 68 | 286 | 12.0 | 22.0 | 0.00 | 0.06 | 0.06 | 55 | 1016.9 |
| 20260905102006 | 69 | 326 | 11.0 | 22.0 | 0.00 | 0.06 | 0.06 | 57 | 1016.9 |
| 20260905101004 | 69 | 296 | 9.0 | 18.0 | 0.00 | 0.06 | 0.06 | 56 | 1017.0 |
| 20260905100006 | 67 | 294 | 9.0 | 13.0 | 0.00 | 0.06 | 0.06 | 61 | 1017.0 |
| 20260905095006 | 67 | 299 | 8.0 | 13.0 | 0.00 | 0.06 | 0.06 | 65 | 1017.1 |
| 20260905093007 | 66 | 326 | 7.0 | 13.0 | 0.00 | 0.06 | 0.06 | 69 | 1017.0 |
| 20260905092004 | 67 | 240 | 8.0 | 14.0 | 0.00 | 0.06 | 0.06 | 69 | 1016.9 |
| 20260905091005 | 68 | 232 | 8.0 | 16.0 | 0.00 | 0.06 | 0.06 | 68 | 1016.9 |
| 20260905090009 | 67 | 291 | 9.0 | 17.0 | 0.00 | 0.06 | 0.06 | 67 | 1017.0 |
| 20260905085005 | 68 | 277 | 8.0 | 16.0 | 0.00 | 0.06 | 0.06 | 71 | 1017.1 |
| 20260905084006 | 66 | 255 | 8.0 | 19.0 | 0.00 | 0.06 | 0.06 | 72 | 1017.1 |
| 20260905081005 | 63 | 264 | 7.0 | 12.0 | 0.00 | 0.06 | 0.06 | 76 | 1016.7 |
| 20260905080006 | 62 | 229 | 4.0 | 8.0 | 0.00 | 0.06 | 0.06 | 80 | 1016.8 |
| 20260905075008 | 61 | 250 | 4.0 | 8.0 | 0.00 | 0.06 | 0.06 | 81 | 1016.9 |
| 20260905074003 | 60 | 188 | 5.0 | 8.0 | 0.00 | 0.06 | 0.06 | 83 | 1016.9 |
| 20260905073006 | 60 | 227 | 4.0 | 8.0 | 0.00 | 0.06 | 0.06 | 85 | 1016.8 |
| 20260905071008 | 59 | 240 | 4.0 | 7.0 | 0.00 | 0.06 | 0.06 | 85 | 1016.6 |
| 20260905070008 | 59 | 238 | 4.0 | 9.0 | 0.00 | 0.06 | 0.06 | 86 | 1016.6 |
| 20260905065009 | 60 | 250 | 4.0 | 7.0 | 0.00 | 0.06 | 0.06 | 86 | 1016.6 |
| 20260905064005 | 60 | 246 | 3.0 | 8.0 | 0.00 | 0.06 | 0.06 | 87 | 1016.3 |
| 20260905063008 | 60 | 237 | 3.0 | 5.0 | 0.01 | 0.06 | 0.06 | 89 | 1016.1 |
| 20260905060009 | 60 | 228 | 2.0 | 6.0 | 0.04 | 0.06 | 0.06 | 89 | 1015.8 |
| 20260905054005 | 60 | 223 | 5.0 | 7.0 | 0.06 | 0.06 | 0.06 | 89 | 1015.6 |
| 20260905053005 | 60 | 208 | 4.0 | 6.0 | 0.04 | 0.04 | 0.04 | 88 | 1015.3 |
| 20260905052007 | 60 | 261 | 4.0 | 9.0 | 0.03 | 0.03 | 0.03 | 87 | 1015.3 |
| 20260905051005 | 60 | 326 | 6.0 | 12.0 | 0.02 | 0.02 | 0.02 | 86 | 1015.6 |
| 20260905050010 | 60 | 284 | 5.0 | 9.0 | 0.02 | 0.02 | 0.02 | 86 | 1015.5 |
| 20260905045005 | 61 | 290 | 6.0 | 11.0 | 0.01 | 0.01 | 0.01 | 84 | 1015.3 |
| 20260905044008 | 61 | 325 | 5.0 | 13.0 | 0.00 | 0.00 | 0.00 | 84 | 1014.8 |
| 20260905042009 | 61 | 291 | 1.0 | 3.0 | 0.00 | 0.00 | 0.00 | 85 | 1014.7 |
| 20260905040010 | 62 | 291 | 3.0 | 6.0 | 0.00 | 0.00 | 0.00 | 83 | 1014.6 |
| 20260905035005 | 62 | 266 | 4.0 | 9.0 | 0.00 | 0.00 | 0.00 | 82 | 1014.6 |
| 20260905034006 | 61 | 291 | 3.0 | 4.0 | 0.00 | 0.00 | 0.00 | 86 | 1014.6 |
| 20260905033006 | 61 | 344 | 3.0 | 4.0 | 0.00 | 0.00 | 0.00 | 86 | 1014.3 |
| 20260905032005 | 61 | 324 | 2.0 | 4.0 | 0.00 | 0.00 | 0.00 | 83 | 1014.3 |
| 20260905031005 | 62 | 281 | 2.0 | 3.0 | 0.00 | 0.00 | 0.00 | 81 | 1013.7 |
| 20260905030008 | 62 | 281 | 4.0 | 8.0 | 0.00 | 0.00 | 0.00 | 80 | 1013.5 |
| 20260905025008 | 62 | 205 | 3.0 | 9.0 | 0.00 | 0.00 | 0.00 | 80 | 1013.5 |
| 20260905024005 | 63 | 233 | 3.0 | 5.0 | 0.00 | 0.00 | 0.00 | 79 | 1013.6 |
| 20260905023007 | 63 | 287 | 4.0 | 8.0 | 0.00 | 0.00 | 0.00 | 79 | 1013.8 |
| 20260905022005 | 63 | 296 | 4.0 | 11.0 | 0.00 | 0.00 | 0.00 | 79 | 1013.8 |
| 20260905021009 | 63 | 275 | 4.0 | 12.0 | 0.00 | 0.00 | 0.00 | 79 | 1013.8 |
| 20260905020010 | 63 | 337 | 5.0 | 11.0 | 0.00 | 0.00 | 0.00 | 76 | 1014.0 |
| 20260905015005 | 64 | 301 | 5.0 | 9.0 | 0.00 | 0.00 | 0.00 | 75 | 1013.9 |
| 20260905014007 | 64 | 315 | 7.0 | 15.0 | 0.00 | 0.00 | 0.00 | 74 | 1013.9 |
| 20260905012008 | 65 | 298 | 6.0 | 13.0 | 0.00 | 0.00 | 0.00 | 71 | 1013.2 |
| 20260905010008 | 65 | 316 | 8.0 | 15.0 | 0.00 | 0.00 | 0.00 | 69 | 1013.2 |
| 20260905005005 | 66 | 331 | 7.0 | 14.0 | 0.00 | 0.00 | 0.00 | 68 | 1013.2 |
| 20260905002006 | 66 | 331 | 7.0 | 12.0 | 0.00 | 0.00 | 0.00 | 68 | 1012.8 |
| 20260905001005 | 66 | 313 | 6.0 | 12.0 | 0.00 | 0.00 | 0.00 | 67 | 1012.8 |
| 20260904234005 | 66 | 327 | 8.0 | 14.0 | 0.00 | 0.00 | 0.00 | 66 | 1012.3 |
| 20260904233007 | 66 | 319 | 9.0 | 15.0 | 0.00 | 0.00 | 0.00 | 66 | 1012.3 |
| 20260904232005 | 66 | 314 | 7.0 | 14.0 | 0.00 | 0.00 | 0.00 | 65 | 1012.5 |
| 20260904231005 | 66 | 343 | 7.0 | 13.0 | 0.00 | 0.00 | 0.00 | 65 | 1012.4 |
| 20260904230011 | 67 | 336 | 12.0 | 18.0 | 0.00 | 0.00 | 0.00 | 64 | 1012.2 |
| 20260904225006 | 67 | 341 | 10.0 | 18.0 | 0.00 | 0.00 | 0.00 | 64 | 1012.3 |
| 20260904223005 | 68 | 321 | 7.0 | 16.0 | 0.00 | 0.00 | 0.00 | 66 | 1011.9 |
| 20260904222003 | 69 | 318 | 9.0 | 16.0 | 0.00 | 0.00 | 0.00 | 66 | 1011.4 |
| 20260904214005 | 73 | 321 | 11.0 | 18.0 | 0.00 | 0.00 | 0.00 | 63 | 1010.6 |
| 20260904213004 | 74 | 338 | 10.0 | 19.0 | 0.00 | 0.00 | 0.00 | 61 | 1010.3 |
| 20260904212005 | 74 | 223 | 8.0 | 15.0 | 0.00 | 0.00 | 0.00 | 58 | 1009.1 |
| 20260904210006 | 75 | 253 | 9.0 | 15.0 | 0.00 | 0.00 | 0.00 | 57 | 1009.2 |
| 20260904205003 | 75 | 223 | 8.0 | 15.0 | 0.00 | 0.00 | 0.00 | 57 | 1009.2 |
| 20260904204006 | 75 | 232 | 7.0 | 13.0 | 0.00 | 0.00 | 0.00 | 57 | 1009.2 |
| 20260904203006 | 74 | 244 | 5.0 | 11.0 | 0.00 | 0.00 | 0.00 | 59 | 1009.3 |
| 20260904201004 | 73 | 180 | 5.0 | 7.0 | 0.00 | 0.00 | 0.00 | 61 | 1009.2 |
| 20260904200007 | 74 | 180 | 5.0 | 9.0 | 0.00 | 0.00 | 0.00 | 59 | 1009.4 |
| 20260904195003 | 74 | 221 | 6.0 | 13.0 | 0.00 | 0.00 | 0.00 | 58 | 1009.4 |
| 20260904193005 | 74 | 169 | 5.0 | 11.0 | 0.00 | 0.00 | 0.00 | 59 | 1009.6 |
| 20260904192004 | 73 | 215 | 5.0 | 8.0 | 0.00 | 0.00 | 0.00 | 61 | 1009.6 |
| 20260904191003 | 72 | 208 | 5.0 | 7.0 | 0.00 | 0.00 | 0.00 | 63 | 1009.7 |
| 20260904190006 | 72 | 198 | 5.0 | 7.0 | 0.00 | 0.00 | 0.00 | 65 | 1009.8 |
| 20260904185005 | 70 | 187 | 5.0 | 6.0 | 0.00 | 0.00 | 0.00 | 68 | 1009.9 |
| 20260904184003 | 71 | 172 | 4.0 | 5.0 | 0.00 | 0.00 | 0.00 | 68 | 1010.1 |
| 20260904183003 | 72 | 199 | 3.0 | 5.0 | 0.00 | 0.00 | 0.00 | 65 | 1010.3 |
| 20260904182005 | 72 | 207 | 4.0 | 5.0 | 0.00 | 0.00 | 0.00 | 66 | 1010.4 |
| 20260904181004 | 72 | 236 | 3.0 | 4.0 | 0.00 | 0.00 | 0.00 | 66 | 1010.4 |
| 20260904180008 | 72 | 216 | 3.0 | 5.0 | 0.00 | 0.00 | 0.00 | 65 | 1010.2 |
| 20260904175004 | 72 | 223 | 3.0 | 5.0 | 0.00 | 0.00 | 0.00 | 65 | 1010.1 |
| 20260904174005 | 72 | 184 | 3.0 | 6.0 | 0.00 | 0.00 | 0.00 | 66 | 1010.0 |
| 20260904173004 | 73 | 170 | 3.0 | 4.0 | 0.00 | 0.00 | 0.00 | 64 | 1009.9 |
| 20260904172004 | 73 | 191 | 3.0 | 5.0 | 0.00 | 0.00 | 0.00 | 65 | 1009.8 |
| 20260904171004 | 73 | 179 | 4.0 | 5.0 | 0.00 | 0.00 | 0.00 | 64 | 1009.8 |
| 20260904170008 | 74 | 204 | 4.0 | 6.0 | 0.00 | 0.00 | 0.00 | 63 | 1009.9 |
| 20260904163005 | 75 | 189 | 3.0 | 5.0 | 0.00 | 0.00 | 0.00 | 61 | 1010.1 |
| 20260904162003 | 76 | 199 | 4.0 | 7.0 | 0.00 | 0.00 | 0.00 | 60 | 1010.2 |
| 20260904161008 | 77 | 237 | 4.0 | 7.0 | 0.00 | 0.00 | 0.00 | 57 | 1010.4 |